Tracking 31027 objects as of 19-Jul-2025
HD Live streaming from Space Station
objects crossing your sky now

STARLINK-5940

Track STARLINK-5940 now!
10-day predictions
STARLINK-5940 is classified as:


NORAD ID: 56012
Int'l Code: 2023-042AC
Perigee: 565.3 km
Apogee: 567.1 km
Inclination: 43.0 °
Period: 95.8 minutes
Semi major axis: 6937 km
RCS: Unknown
Launch date: March 24, 2022
Source: United States (US)
Launch site: AIR FORCE EASTERN TEST RANGE (AFETR)
Your satellite tracking list
FENGYUN 1C DEB
Track 1 satellite(s)




NASA's NSSDC Master Catalog

Two Line Element Set (TLE):
1 56012U 23042AC  25199.81252579  .00000005  00000-0  15475-4 0  9991
2 56012  43.0022 234.4031 0001300 275.6095  84.4599 15.02535912128218
Source of the keplerian elements: AFSPC